weather.gov     
National Weather Service

Terminal Aerodrome Forecast
NWS Homepage
This page is being discontinued on March 12, 2014.
The same data is available at this site. Please update your bookmarks.
Thank you, and we apologize for the inconvenience.
Please send an email to SR-SRH.Webmaster@noaa.gov with any concerns.


Current Version
Previous Version:    01  02  03  04  05  06  07  08  09  10  11  12  13  14  15  16  17  18  19  20  21  22  23  24  
[Printable]
097
FTUS42 KJAX 301700
TAFJAX
TAF
KJAX 301728Z 3018/3118 34005KT P6SM VCSH FEW030 SCT040 BKN250
     FM302100 06008KT P6SM VCTS SCT030CB BKN050
     FM302300 34006KT P6SM VCSH SCT020 BKN040
     FM310600 35006KT P6SM SCT015 BKN060
     FM311500 33008KT P6SM FEW040=


U.S. Dept. of Commerce
NOAA National Weather Service
1325 East West Highway
Silver Spring, MD 20910
E-mail: w-nws.webmaster@noaa.gov
Page last modified: May 16, 2007
NATIONAL WEATHER SERVICE: for Safety, for Work, for Fun - FOR LIFE